Regional Weather Roundup
Issued by NWS Goodland, KS

Home | Current Version | Previous Version | Graphics & Text | Print | Product List | Glossary On
Versions: 1 2 3 4 5 6 7 8 9 10 11 12 13 14 15 16 17 18 19 20 21 22 23 24 25 26 27 28 29 30 31 32 33 34 35 36 37 38 39 40 41 42 43 44 45 46 47 48 49 50
762
ASUS43 KGLD 291608
RWRGLD

GOODLAND FORECAST AREA HOURLY WEATHER ROUNDUP
NATIONAL WEATHER SERVICE GOODLAND KS
1000 AM MDT FRI JUL 29 2016

...OFFICIAL OBSERVATIONS...

CITY           SKY/WX    TMP DP  RH WIND       PRES   REMARKS
GOODLAND KS    LGT RAIN  68  62  81 SE3       30.17S
HILL CITY KS   MOSUNNY   76  67  73 VRB5      30.11S
IMPERIAL NEB   MOSUNNY   72  62  71 E6        30.15S
MCCOOK NEB     MOSUNNY   73  64  73 VRB5      30.13F
AKRON CO       CLOUDY    70  55  59 SE17      30.19S
BURLINGTON CO  PTSUNNY   67  60  78 E8        30.18F
LIMON CO       CLOUDY    67  59  75 SE7       30.21F
$$

...UNOFFICIAL OBSERVATIONS...

CITY           SKY/WX    TMP DP  RH WIND       PRES   REMARKS
COLBY KS       CLOUDY    68  68 100 CALM      30.18R
LENORA KS        N/A     76  32  20 MISG        N/A
NORTON KS      MOSUNNY   75  59  57 CALM      30.10F
SHARON SPRINGS   N/A     66  64  92 NE7         N/A
KIT CARSON CO    N/A     68  62  79 MISG        N/A
YUMA CO          N/A     70  58  66 SE9         N/A
$$




USA.gov is the U.S. government's official web portal to all federal, state and local government web resources and services.